Starlink 33703

operational
NORAD ID: 63418 Int'l Des: 2025-065 Owner: SPXS Country: US Constellation: starlink
LEOCIRCULAR

About Starlink 33703

Description loading...

Live Position

Loading 3D Globe...

Upcoming Passes

Altitude History

Altitude vs Time

uPlot chart will show altitude changes over time

Two-Line Element Set

1 63418U 25065V 25301.58617475 .00038838 00000-0 14141-2 0 9997
2 63418 43.0024 133.3176 0001731 270.4455 89.6198 15.27565813 32638
Epoch: Oct 28, 2025 • Age: 19 hours

Current Status

Altitude 484.4 km
Velocity 7.63 km/s
Sub-Earth Point 30.91°N, 6.11°W
Launch Date Mar 31, 2025
Age 0.5 years
Type internet

Technical Details

Classification Payload
Mass 575.00 kg
Dry Mass 530.00 kg
Total Mass 575.00 kg
Length 0.30 m
Diameter 4.10 m
Span 29.00 m
Shape Box + pan
Manufacturer SPXS
Bus Type Starlink V2MO
Phase Status In Orbit
Owner/State SPXS/US

Large Constellations

Loading constellations...